Location: Most
(50.5133°N, 13.6207°E)
Time: 14:25:42
(UTC+02:00)

ISS - Pass Details

Date: 20 September 2017
Orbit: 402 x 407 km, 51.6° (Epoch: 21 September)

Event Time Altitude Azimuth Distance (km) Brightness Sun altitude
Exits shadow 04:16:10 11° 129° (SE) 1,404 -0.9 -23.6°
Drops below altitude 10° 04:16:19 10° 128° (SE) 1,466 -0.8 -23.6°
Sets 04:18:26 0° 123° (ESE) 2,323 0.3 -23.3°
